Location: Ajisawe
(8.4333°N, 4.3833°E)
Time: 23:56:16
(UTC+00:00)

S-56A Canister/Altair - Pass Details

Date: 26 April 2021
Orbit: 631 x 2501 km, 38.9° (Epoch: 15 May)

Event Time Altitude Azimuth Distance (km) Brightness Sun altitude
Rises 19:58:21 0° 259° (W) 6,053 12.9 -30.6°
Reaches altitude 10° 20:03:27 10° 270° (W) 4,865 12.3 -31.8°
Maximum altitude 20:14:01 28° 322° (NW) 3,078 10.9 -34.2°
Drops below altitude 10° 20:22:07 10° 18° (NNE) 3,649 11.0 -36.1°
Sets 20:25:21 0° 31° (NNE) 4,348 11.3 -36.8°
